Orbital Elements at Epoch 2459200.5 (2020-Dec-17.0) TDB
Reference: JPL 21 (heliocentric ecliptic J2000)
Element | Value | Uncertainty (1-sigma) | Units |
e | .1463402457683334 | 3.7859e-08 | |
a | 2.563405422931704 | 1.2052e-08 | au |
q | 2.188276043336 | 1.009e-07 | au |
i | 8.542266392813193 | 3.3686e-06 | deg |
node | 111.0150910024798 | 2.8158e-05 | deg |
peri | 355.4299556950558 | 3.1576e-05 | deg |
M | 43.79024786072143 | 1.5676e-05 | deg |
tp | 2459018.152725000262 (2020-Jun-17.65272500) | 6.4881e-05 | TDB |
period | 1499.078498223968 4.10 | 1.0572e-05 2.894e-08 | d yr |
n | .2401475309175001 | 1.6936e-09 | deg/d |
Q | 2.938534802527408 | 1.3815e-08 | au |
|
| | Orbit Determination Parameters
Additional Information
|